sat.trackr.live / text

‹ back to catalog

STARLINK-34458

NORAD 64360 · 2025-126S

PAYLOAD ACTIVE UNKNOWN

§ Identity

Operator
Country
US
Launch date
2025-06-13
Launch site
AFWTR
Launch vehicle
Mass (kg)
RCS (m²)

Purposes: comms

External: N2YO · Heavens-Above · Gunter

§ Orbital elements

Epoch: 2026-05-25T03:25:51.216096Z

Period
96.11 min
Inclination
70.0000°
Eccentricity
0.0003684
Mean motion
14.98292933 rev/d
Perigee alt
569.6 km
Apogee alt
574.7 km
Semi-major
6,950.3 km
B*
4.0897e-3
RAAN
201.6944°
Arg perigee
283.5724°
Mean anomaly
76.5024°
Rev number
5,213

§ Raw data

STARLINK-344581 64360U 25126S   26145.14295389  .00049002  00000+0  40897-2 0  99982 64360  70.0000 201.6944 0003684 283.5724  76.5024 14.98292933 52131

JSON: /api/v1/satellites/64360 · /tle

For live sub-satellite position, see the globe view (requires WebGL).

§ Visibility from observer

Set your observer location to see the next 7 days of passes ≥ 10°. The values pass through the URL so the page stays shareable.

No JS? Fill the form by hand. The geolocation button needs JavaScript.